Temperature
11 11 11 11 11 11 11 11 10 10 11 12 12 13 13 13 13 13 13 13 14 14 14 14 15 15 15 15 15 15 15 15 16 16 16 16 16 16
11 11 11 11 11 10 10 10 10 10 10 11 11 12 12 12 12 12 13 13 13 13 14 14 14 14 15 15 15 15 15 15 15 15 16 16 16 16
11 11 11 11 10 10 10 10 10 10 10 11 11 11 11 12 12 12 12 13 13 13 13 13 14 14 14 14 14 15 15 15 15 15 15 16 16 16
11 11 11 10 10 10 10 10 10 10 10 10 11 11 11 11 11 12 12 12 12 13 13 13 13 13 14 14 14 14 14 15 15 15 15 15 15 16
11 10 10 10 10 10 10 10 10 10 10 10 10 10 11 11 11 11 11 12 12 12 12 13 13 13 13 13 14 14 14 14 15 15 15 15 15 15
10 10 10 10 10 10 10 10 10 10 9 9 10 10 10 10 10 11 11 11 12 12 12 12 12 13 13 13 13 14 14 14 14 15 15 15 15 15
10 10 10 10 10 10 10 10 9 9 9 9 9 10 10 10 10 10 10 11 11 11 12 12 12 12 12 13 13 13 14 14 14 14 14 15 15 15
10 10 10 10 10 10 9 9 9 9 9 9 9 9 10 10 10 10 10 10 10 11 11 11 12 12 12 12 13 13 13 13 14 14 14 14 14 15
10 10 10 10 10 10 9 9 9 9 9 9 9 9 9 9 9 9 9 9 10 10 10 11 11 12 12 12 13 13 13 13 13 13 14 14 14 14
10 10 10 10 10 9 9 9 9 9 9 9 9 9 9 9 9 9 9 9 9 10 10 10 11 11 12 12 12 13 13 13 13 13 13 14 14 14
11 10 10 10 10 9 9 9 9 9 9 9 9 9 9 9 9 8 8 8 9 10 10 10 11 11 12 12 12 12 13 13 13 13 13 13 14 14
11 11 10 10 10 9 9 9 9 9 9 9 9 8 8 8 8 8 8 8 8 9 9 9 10 10 11 12 12 12 12 12 13 13 13 13 13 13
11 11 10 10 10 9 9 9 9 9 8 8 8 8 8 8 8 8 8 8 8 8 9 9 9 9 10 10 11 11 12 12 12 12 13 13 13 13
11 11 10 10 9 9 9 9 8 8 8 8 8 8 8 9 8 8 8 8 8 8 9 9 8 9 9 9 10 11 11 11 12 12 12 12 13 13
11 11 10 10 9 9 9 9 8 8 8 8 8 8 8 8 8 8 8 8 8 8 8 9 8 9 9 9 10 10 11 11 11 12 12 12 12 12
11 10 10 10 9 9 9 9 8 8 8 8 8 8 8 8 8 8 8 8 8 8 9 9 9 9 9 9 9 10 10 10 11 11 12 12 12 12
11 10 10 10 9 9 9 9 8 8 8 8 8 8 8 8 8 8 8 8 8 8 8 9 9 9 9 9 9 10 10 10 11 11 11 11 11 12
10 10 10 10 9 9 9 9 9 8 8 8 8 8 8 8 8 8 8 8 8 8 8 9 9 9 9 9 9 10 10 10 11 11 11 11 11 11
10 10 10 10 9 9 9 9 9 8 8 8 8 8 8 8 8 8 8 8 8 8 8 8 9 8 8 8 9 10 10 10 10 11 11 11 11 11
11 10 10 10 9 9 9 9 8 8 8 8 8 8 8 8 8 8 8 8 8 8 8 8 8 9 9 9 9 10 10 10 10 10 11 11 11 11
10 10 10 9 9 9 9 8 8 8 8 8 8 8 8 8 8 8 8 8 8 8 8 8 9 9 9 9 9 9 10 10 10 10 10 10 10 10
10 10 9 9 9 9 9 8 8 8 8 8 8 8 8 8 8 8 8 8 8 8 8 9 9 9 8 8 9 9 9 9 9 9 10 10 10 10
10 9 9 9 9 8 8 8 8 8 8 8 8 8 8 8 8 8 8 8 8 8 8 8 8 8 8 9 9 9 9 9 9 9 9 10 10 10
Wind_Speed
4 4 3 4 3 3 3 3 3 3 4 4 4 4 6 8 9 8 9 10 10 10 11 13 14 15 17 20 23 26 29 31 32 32 33 33 32 32
4 5 4 4 4 4 3 3 4 4 4 4 4 5 5 7 9 9 11 13 13 14 14 15 15 16 17 19 21 24 27 29 31 32 32 32 33 33
5 5 6 5 4 4 4 3 3 4 5 5 4 4 4 6 7 9 11 11 13 16 17 17 17 17 18 19 21 23 25 27 29 31 32 32 33 33
7 6 7 5 5 5 4 5 5 5 5 6 4 3 5 6 6 6 6 9 11 15 17 18 18 18 19 20 22 23 25 26 28 29 30 32 32 33
7 7 7 6 7 5 6 6 5 5 4 5 5 3 4 4 5 5 6 5 8 12 15 17 18 19 19 20 21 23 24 26 27 29 30 31 32 33
6 7 7 7 8 8 6 7 6 6 5 5 5 5 4 4 3 4 5 4 5 6 9 11 14 16 17 19 20 22 23 25 27 28 29 31 32 32
6 6 7 9 11 9 7 7 7 6 5 5 5 4 5 4 4 3 4 5 5 4 4 4 5 5 9 14 17 19 21 23 25 27 28 29 31 32
7 7 7 9 11 12 12 11 10 8 7 6 6 6 7 6 5 4 4 3 4 3 2 5 4 6 6 9 13 17 20 21 23 25 27 28 29 30
8 7 7 8 9 7 9 11 11 13 13 9 8 9 8 7 6 6 6 6 6 5 3 5 4 6 6 11 15 17 19 20 22 23 25 26 28 29
9 9 8 9 10 9 9 8 9 9 10 9 9 10 10 9 8 8 7 6 6 5 4 5 5 6 6 7 12 15 17 18 20 22 23 24 25 26
9 9 9 9 13 13 9 9 9 9 11 14 14 13 14 14 10 5 5 5 6 5 4 4 5 5 5 6 8 12 14 15 17 19 21 22 23 23
8 8 12 12 12 12 7 8 9 9 8 8 8 9 9 10 12 9 8 7 6 5 5 5 4 3 4 3 3 4 6 10 14 16 18 20 20 15
7 7 8 12 13 12 9 8 11 10 7 7 7 7 7 7 8 8 9 9 9 8 6 4 4 3 4 4 3 3 4 3 4 7 13 17 19 16
9 8 8 12 13 12 9 11 14 11 6 6 7 8 8 8 8 8 9 10 11 12 9 8 6 6 5 5 4 3 3 4 4 5 5 10 15 19
9 11 11 12 11 10 13 16 12 7 6 7 9 10 9 8 7 6 7 8 9 12 13 10 9 8 7 6 5 4 4 4 5 5 5 6 7 8
8 9 11 12 11 12 11 10 8 8 8 9 8 9 7 6 7 6 6 6 5 7 8 11 10 11 9 8 7 6 5 4 4 5 5 5 6 7
5 3 3 4 5 6 7 8 7 7 8 9 9 9 8 8 8 7 6 6 6 6 6 5 7 8 10 8 7 8 7 6 5 5 5 6 6 8
6 4 6 7 8 8 8 8 7 8 8 8 8 9 9 9 9 7 6 7 8 8 7 6 4 4 4 6 9 8 7 6 5 6 5 5 6 6
6 7 8 8 8 8 8 8 8 8 7 7 8 9 9 9 8 8 7 7 7 8 7 6 6 6 8 8 6 9 8 6 6 6 5 4 5 6
7 9 9 9 8 8 8 8 8 7 7 7 8 8 8 8 8 8 8 8 8 7 6 6 7 8 10 8 5 5 9 7 6 7 5 3 1 2
9 9 9 9 8 8 8 8 7 7 7 7 7 8 7 7 8 8 8 10 9 7 8 8 9 11 6 4 3 3 3 5 5 5 5 4 3 3
8 8 8 8 8 7 7 7 6 7 7 7 7 7 7 7 8 9 8 7 8 8 9 7 5 5 5 7 7 6 4 3 4 8 7 3 4 6
8 7 7 7 7 6 6 7 7 7 7 7 7 6 6 6 7 7 8 8 7 8 7 6 4 5 6 7 6 5 6 6 4 3 3 8 3 2
Wind_Direction
251 249 245 254 250 236 215 193 201 273 291 285 298 310 321 315 308 290 277 272 265 264 264 263 260 255 250 243 236 230 225 222 220 218 218 218 218 219
246 249 252 252 257 253 238 218 194 205 252 268 267 284 303 308 310 297 279 274 267 263 262 260 259 256 252 248 241 233 226 223 221 219 218 217 217 217
255 247 252 253 253 257 251 242 230 204 246 273 263 282 296 295 299 298 288 274 269 265 260 258 257 257 254 248 243 237 231 226 222 220 219 217 217 217
249 247 252 255 252 250 245 246 245 229 227 267 281 285 282 283 284 288 286 281 269 269 264 259 258 258 255 250 244 239 234 229 225 222 220 219 217 217
239 239 247 247 252 250 245 245 246 251 228 242 267 268 274 283 295 295 290 286 282 276 271 264 259 257 255 252 246 241 236 232 228 225 222 220 218 217
243 240 243 240 242 246 247 243 242 247 245 246 261 268 270 278 284 290 303 300 296 288 275 270 265 262 257 253 249 243 239 234 230 227 224 221 219 218
251 249 250 251 248 244 244 237 234 235 240 243 256 268 270 277 273 270 282 294 293 275 294 290 277 269 265 258 251 246 240 235 231 228 226 223 221 219
249 257 262 265 265 264 261 252 231 226 230 234 244 247 256 251 251 259 267 292 296 284 296 291 280 272 265 257 251 245 239 234 230 227 225 224 223 221
240 250 264 266 267 263 268 270 261 246 231 225 234 243 248 243 241 256 251 245 251 261 274 278 275 273 267 264 257 248 240 234 231 227 225 224 223 222
238 239 247 261 267 258 259 262 257 256 247 237 233 242 243 240 230 238 246 255 258 256 230 260 270 268 270 263 262 252 242 235 232 228 225 224 223 221
244 242 242 252 262 265 256 254 260 264 262 250 241 243 247 248 240 238 244 247 265 267 223 229 256 263 267 263 259 254 246 238 233 230 227 225 223 220
250 247 246 248 257 266 244 238 251 259 262 270 264 262 258 258 252 230 227 234 244 260 236 215 239 242 274 266 257 259 251 241 237 233 228 223 216 211
244 248 246 246 252 256 242 229 243 252 256 254 259 263 264 258 253 237 225 225 230 239 234 210 235 230 243 282 286 261 245 238 231 234 230 222 211 203
236 241 242 246 250 252 247 245 253 260 255 254 258 261 259 258 255 246 236 232 232 238 233 212 226 231 238 251 264 269 249 236 227 231 224 215 213 209
236 238 241 248 253 256 254 255 257 250 240 247 253 257 252 250 251 254 254 246 243 244 243 223 223 228 225 237 244 243 251 242 224 226 220 212 207 199
239 248 253 257 255 252 258 261 248 236 233 243 250 255 253 248 247 244 251 250 250 259 245 230 223 222 231 232 233 240 229 231 221 217 218 216 210 204
199 230 247 256 258 257 257 256 250 242 241 243 246 252 252 249 250 240 236 237 238 250 259 247 227 223 220 213 224 233 232 232 224 208 209 218 216 209
168 223 243 247 252 257 259 260 252 245 244 242 242 243 246 247 249 243 230 231 240 244 243 239 219 212 225 237 218 223 226 226 217 205 205 216 219 208
194 230 240 246 249 249 251 253 257 252 243 241 244 244 243 244 242 241 235 233 237 239 237 225 209 206 221 236 231 209 211 214 203 204 206 210 218 205
219 233 241 244 245 246 248 250 253 255 250 246 246 245 242 240 238 237 234 231 235 237 238 228 216 213 218 224 218 214 202 201 202 207 198 185 186 150
224 232 239 242 243 244 247 247 248 252 254 250 248 246 241 234 237 236 233 233 230 231 233 236 233 219 209 176 193 213 201 196 200 198 179 174 177 176
231 233 238 241 241 244 246 246 249 251 255 253 252 251 243 234 235 234 231 230 229 229 233 236 220 192 186 200 212 204 189 159 89 84 74 90 178 187
231 233 238 240 239 241 243 245 247 251 251 252 252 250 244 240 238 235 232 230 229 228 227 226 206 194 202 204 203 193 180 175 164 138 54 16 30 102
Height
1530 1530 1529 1529 1529 1528 1528 1528 1527 1524 1523 1523 1524 1524 1524 1523 1523 1523 1523 1523 1523 1523 1523 1523 1523 1524 1526 1529 1532 1535 1539 1543 1547 1551 1555 1559 1563 1567
1527 1527 1526 1526 1525 1525 1524 1524 1524 1523 1520 1519 1519 1520 1519 1519 1519 1519 1519 1518 1518 1518 1518 1518 1518 1518 1520 1521 1523 1527 1530 1534 1538 1543 1547 1551 1556 1559
1524 1523 1523 1522 1521 1521 1520 1520 1519 1519 1516 1515 1515 1515 1515 1515 1514 1514 1514 1514 1513 1513 1513 1513 1513 1513 1513 1514 1516 1518 1521 1525 1529 1534 1538 1543 1547 1552
1520 1519 1519 1518 1517 1516 1516 1515 1515 1514 1513 1511 1510 1510 1510 1510 1509 1509 1508 1508 1508 1508 1507 1507 1507 1507 1507 1507 1508 1510 1513 1516 1520 1524 1529 1534 1538 1543
1516 1515 1514 1514 1512 1512 1511 1510 1510 1509 1508 1507 1505 1505 1505 1505 1504 1503 1503 1502 1502 1502 1501 1501 1501 1501 1500 1501 1501 1503 1505 1507 1511 1515 1519 1524 1529 1534
1512 1511 1510 1509 1508 1507 1506 1505 1505 1504 1503 1502 1501 1500 1500 1500 1499 1498 1497 1497 1496 1496 1496 1495 1495 1494 1494 1494 1494 1495 1496 1499 1501 1505 1509 1514 1519 1525
1507 1506 1504 1503 1502 1501 1501 1500 1500 1499 1498 1497 1496 1495 1494 1494 1494 1493 1492 1491 1491 1491 1490 1490 1489 1488 1488 1487 1487 1488 1489 1490 1493 1496 1500 1504 1509 1515
1502 1501 1499 1498 1496 1496 1495 1495 1494 1493 1492 1492 1491 1489 1489 1489 1488 1488 1487 1486 1485 1486 1485 1484 1484 1482 1482 1482 1481 1481 1482 1483 1485 1488 1491 1495 1500 1505
1497 1496 1494 1492 1491 1490 1489 1489 1488 1488 1488 1487 1485 1484 1483 1483 1483 1482 1481 1480 1479 1479 1479 1477 1477 1476 1476 1475 1475 1475 1475 1476 1477 1480 1483 1487 1491 1496
1492 1490 1489 1487 1486 1485 1484 1483 1482 1482 1481 1480 1479 1478 1477 1477 1477 1476 1475 1473 1472 1473 1474 1471 1470 1470 1470 1469 1468 1468 1469 1469 1470 1472 1475 1479 1483 1487
1487 1485 1484 1482 1481 1480 1479 1477 1476 1475 1475 1474 1472 1471 1470 1470 1470 1469 1468 1467 1465 1465 1467 1466 1464 1464 1463 1462 1462 1462 1462 1463 1464 1466 1468 1471 1475 1479
1481 1480 1479 1477 1476 1475 1473 1472 1470 1469 1468 1467 1465 1464 1463 1463 1463 1462 1461 1460 1459 1458 1459 1460 1459 1459 1457 1456 1456 1456 1456 1457 1458 1460 1462 1464 1467 1471
1475 1474 1473 1472 1470 1469 1467 1466 1464 1463 1461 1459 1458 1456 1456 1455 1454 1454 1454 1453 1452 1451 1453 1455 1454 1454 1454 1452 1451 1451 1451 1452 1453 1454 1455 1457 1460 1463
1469 1468 1467 1465 1464 1462 1461 1459 1458 1456 1454 1452 1450 1449 1448 1447 1447 1446 1446 1445 1445 1445 1446 1448 1447 1448 1448 1447 1447 1447 1447 1447 1448 1448 1450 1451 1453 1456
1462 1461 1460 1458 1457 1455 1453 1452 1450 1448 1446 1444 1442 1441 1441 1440 1439 1438 1438 1438 1438 1438 1439 1440 1440 1441 1442 1442 1442 1442 1442 1442 1443 1443 1444 1445 1447 1449
1455 1454 1453 1451 1449 1447 1446 1444 1442 1440 1438 1437 1435 1434 1434 1433 1432 1432 1431 1431 1431 1430 1432 1433 1434 1434 1435 1436 1437 1436 1437 1437 1438 1439 1440 1440 1441 1444
1448 1447 1445 1444 1442 1440 1438 1436 1434 1433 1431 1429 1428 1427 1426 1425 1425 1425 1424 1424 1424 1423 1424 1426 1427 1428 1429 1430 1430 1431 1431 1432 1433 1434 1435 1435 1436 1438
1441 1439 1438 1436 1434 1432 1430 1428 1427 1425 1424 1422 1421 1420 1419 1418 1418 1418 1418 1417 1417 1417 1417 1419 1420 1421 1422 1423 1424 1425 1426 1427 1428 1430 1431 1431 1431 1433
1432 1431 1430 1428 1427 1425 1423 1421 1419 1418 1417 1415 1414 1413 1412 1411 1410 1410 1410 1410 1410 1410 1411 1412 1414 1415 1416 1416 1417 1419 1421 1421 1423 1424 1426 1427 1428 1430
1424 1423 1422 1421 1419 1417 1416 1414 1412 1411 1410 1408 1407 1406 1405 1404 1403 1403 1403 1403 1403 1404 1404 1406 1407 1408 1409 1411 1412 1414 1415 1417 1418 1420 1421 1423 1425 1427
1415 1415 1414 1413 1411 1410 1408 1407 1406 1404 1403 1401 1400 1399 1398 1397 1396 1396 1396 1396 1397 1397 1398 1399 1400 1403 1404 1406 1407 1408 1410 1412 1413 1415 1417 1419 1421 1423
1407 1407 1406 1405 1404 1403 1402 1400 1399 1398 1396 1395 1393 1392 1391 1390 1389 1389 1389 1390 1390 1391 1391 1393 1395 1397 1398 1399 1401 1403 1405 1407 1409 1411 1413 1416 1416 1419
1399 1399 1399 1398 1397 1396 1395 1394 1393 1391 1390 1388 1387 1386 1385 1384 1383 1383 1383 1383 1384 1385 1386 1387 1389 1390 1392 1394 1396 1398 1400 1402 1405 1407 1409 1411 1414 1416